Temp
12 12 12 12 12 12 12 12 12 12 12 12 12 12 12 12 12 11 12 12 12 12 12 12 11 11 11 11 11 11 10 10 9 9 9 10 9 10 10 9 8 9 7 8 9
12 12 12 12 12 12 12 12 12 12 12 12 12 12 12 12 12 12 12 12 12 12 12 12 11 11 11 11 11 10 10 10 10 9 10 10 9 10 9 8 9 9 9 9 9
12 12 12 12 12 12 12 12 12 12 12 12 12 12 12 12 12 11 12 12 12 12 12 11 11 12 10 11 11 10 9 10 10 10 10 10 10 10 9 9 8 9 9 8 9
12 12 12 12 12 12 12 12 12 12 12 12 12 12 12 12 11 12 11 11 12 12 11 11 11 11 11 10 11 9 10 10 9 10 10 9 10 9 9 8 9 9 9 9 9
12 12 12 12 12 12 12 12 12 12 12 11 12 12 12 11 11 12 11 11 11 12 11 11 11 11 11 10 10 9 8 9 9 9 9 10 9 9 9 9 9 9 9 9 8
12 12 12 12 12 12 12 12 12 12 11 11 11 11 11 10 11 11 11 11 11 11 11 11 11 11 10 11 10 10 8 9 9 9 9 9 9 10 9 9 9 9 9 9 9
12 12 12 12 12 12 11 11 11 11 11 11 11 11 10 10 10 10 11 11 11 11 10 11 11 10 10 10 10 9 8 9 9 9 9 9 9 9 9 9 9 9 9 9 9
12 12 12 12 11 11 11 11 11 10 11 11 11 10 9 10 10 11 11 11 11 11 11 11 11 11 10 11 9 9 10 10 10 10 9 10 10 9 9 9 8 9 9 9 9
12 12 12 12 11 11 11 10 10 10 10 10 10 10 9 10 10 11 11 11 11 10 11 11 11 10 11 10 12 10 12 11 10 10 10 10 9 9 9 9 9 8 8 9 9
11 12 12 12 11 11 11 10 10 10 10 10 10 10 10 9 10 10 10 11 10 10 11 11 11 12 11 11 13 12 13 12 12 10 10 10 10 10 10 10 10 8 8 8 8
11 11 12 12 12 11 11 10 10 10 10 10 10 10 10 10 10 10 10 10 10 10 11 11 12 13 13 11 12 12 13 12 11 11 10 10 10 9 10 10 10 9 9 9 8
11 11 12 12 12 11 11 10 10 10 10 10 10 10 10 10 9 9 10 10 10 11 11 11 12 13 11 11 11 12 13 13 11 12 10 11 11 10 10 11 10 9 10 9 8
11 11 11 12 12 11 11 11 11 11 10 10 10 10 10 10 10 10 9 10 11 11 11 12 13 12 12 12 12 13 14 14 13 11 11 11 13 12 11 12 11 10 10 9 10
11 11 11 11 12 11 11 11 11 11 12 11 11 11 10 10 10 10 10 10 10 11 11 12 12 11 12 12 13 14 13 13 12 12 14 12 15 13 12 12 12 11 11 9 9
11 11 11 11 11 11 11 11 11 11 15 12 11 11 11 11 11 10 10 10 11 11 11 12 12 12 12 13 13 14 13 13 12 14 13 13 14 14 14 13 11 13 12 11 9
11 11 11 11 11 11 11 10 11 11 14 12 12 11 11 11 11 11 10 10 11 11 11 12 12 12 13 12 13 13 12 13 13 14 16 15 14 16 15 13 12 12 12 12 11
10 11 11 11 11 11 11 10 11 13 12 12 12 12 12 12 11 11 11 11 12 12 12 12 12 12 12 13 12 13 14 16 16 16 17 14 14 15 14 13 13 13 13 13 12
10 10 11 11 11 11 10 9 11 13 13 12 12 12 13 12 12 12 12 12 12 12 13 14 14 13 13 13 14 13 15 16 15 17 18 13 15 15 14 14 13 13 13 13 12
9 10 10 11 10 10 10 10 13 12 12 12 12 13 13 13 13 12 12 13 13 12 14 14 14 13 13 13 13 14 13 15 15 16 15 16 15 14 14 14 13 13 13 13 13
9 9 10 10 10 10 8 11 11 11 11 12 13 13 14 13 13 13 13 13 13 13 13 14 14 13 13 13 13 13 14 15 15 15 15 16 15 15 14 13 13 13 13 13 13
9 8 9 9 9 9 9 10 10 10 11 11 12 13 14 14 13 14 14 13 13 13 13 13 14 13 12 13 14 13 14 14 15 15 16 16 16 14 13 13 12 13 13 13 13
8 7 8 8 8 8 9 8 9 10 10 11 11 12 13 13 13 14 14 14 13 13 13 13 14 14 14 13 13 12 13 13 14 15 14 14 15 13 13 13 13 13 13 12 12
7 7 7 7 7 7 7 8 8 9 10 10 11 11 12 13 13 13 13 13 13 13 13 13 14 14 14 12 12 12 12 13 13 14 14 15 15 13 13 12 12 12 12 11 12
6 6 6 6 7 7 7 8 8 8 9 9 10 10 11 12 12 13 13 12 13 13 13 13 13 13 14 14 13 13 12 12 12 13 14 14 13 13 12 10 10 11 11 11 11
5 4 6 5 5 5 7 6 8 8 8 9 9 10 10 12 13 12 13 12 12 12 12 12 13 13 13 12 12 12 12 12 11 12 12 12 12 12 11 10 9 10 10 10 10
4 5 5 5 5 6 5 6 7 7 7 9 9 8 10 10 12 13 13 13 12 12 12 12 12 12 12 12 11 11 12 11 11 11 11 11 11 11 9 9 9 10 10 9 10
4 4 4 3 3 4 5 5 5 6 7 7 7 9 8 9 11 12 12 12 12 12 12 12 12 12 13 11 11 11 11 11 11 11 11 11 11 9 9 8 8 9 9 9 9
Height
3156 3155 3154 3154 3153 3152 3152 3152 3152 3153 3153 3153 3154 3156 3157 3159 3162 3164 3166 3168 3169 3170 3172 3172 3173 3173 3172 3171 3169 3166 3167 3166 3167 3169 3170 3172 3176 3177 3177 3175 3175 3175 3176 3174 3175
3157 3156 3155 3154 3153 3152 3151 3151 3151 3152 3152 3152 3153 3154 3156 3158 3161 3162 3165 3167 3168 3170 3171 3173 3173 3173 3173 3171 3169 3167 3167 3165 3166 3168 3170 3173 3177 3178 3178 3178 3176 3176 3175 3175 3175
3158 3157 3156 3155 3154 3152 3151 3150 3150 3150 3150 3151 3152 3153 3154 3156 3160 3160 3163 3165 3168 3169 3171 3173 3174 3174 3175 3172 3170 3167 3166 3165 3166 3167 3171 3174 3177 3178 3180 3181 3178 3177 3177 3176 3176
3159 3158 3157 3155 3154 3153 3151 3150 3149 3149 3149 3150 3151 3152 3153 3156 3163 3158 3161 3164 3166 3168 3170 3173 3174 3175 3176 3174 3170 3168 3166 3166 3168 3169 3172 3175 3177 3180 3179 3180 3179 3179 3178 3177 3176
3160 3159 3157 3156 3155 3153 3151 3150 3150 3149 3149 3149 3150 3151 3153 3155 3156 3156 3160 3163 3165 3168 3170 3173 3174 3176 3176 3173 3170 3169 3167 3167 3168 3169 3173 3175 3177 3179 3179 3179 3179 3180 3180 3180 3178
3160 3158 3157 3156 3155 3153 3152 3151 3150 3149 3149 3149 3150 3151 3153 3158 3155 3156 3159 3162 3164 3167 3169 3172 3174 3174 3174 3172 3172 3169 3168 3168 3169 3170 3171 3175 3178 3179 3180 3179 3180 3181 3181 3181 3180
3160 3159 3158 3156 3155 3154 3153 3152 3151 3150 3150 3149 3150 3151 3153 3155 3155 3156 3158 3160 3162 3165 3169 3171 3173 3174 3175 3173 3172 3170 3171 3170 3172 3173 3174 3175 3177 3176 3180 3181 3181 3182 3183 3183 3183
3160 3159 3158 3156 3156 3155 3154 3153 3152 3151 3151 3150 3151 3152 3155 3154 3155 3156 3157 3160 3162 3165 3168 3171 3173 3174 3175 3173 3173 3175 3176 3175 3174 3174 3175 3176 3177 3179 3180 3181 3183 3184 3184 3184 3184
3160 3159 3158 3156 3156 3155 3155 3154 3154 3153 3152 3152 3153 3154 3156 3155 3155 3155 3156 3159 3162 3165 3169 3172 3174 3175 3175 3175 3176 3176 3176 3176 3175 3174 3175 3177 3177 3178 3178 3181 3183 3185 3185 3186 3185
3160 3159 3157 3156 3155 3155 3155 3154 3154 3154 3154 3154 3154 3157 3155 3155 3154 3154 3156 3159 3163 3166 3170 3173 3176 3177 3176 3175 3173 3176 3175 3176 3176 3175 3174 3176 3177 3177 3178 3180 3181 3184 3186 3186 3186
3160 3158 3157 3156 3155 3155 3155 3154 3157 3156 3154 3155 3155 3154 3153 3152 3153 3155 3157 3160 3164 3168 3172 3173 3176 3175 3174 3174 3174 3176 3176 3176 3176 3174 3175 3176 3177 3175 3176 3178 3179 3181 3184 3187 3188
3159 3158 3156 3155 3155 3154 3154 3155 3154 3155 3155 3154 3154 3154 3153 3154 3156 3156 3159 3164 3166 3169 3171 3174 3173 3173 3173 3175 3175 3176 3176 3175 3176 3174 3174 3175 3175 3175 3173 3175 3177 3179 3181 3182 3185
3158 3156 3155 3154 3154 3154 3154 3154 3154 3154 3155 3156 3155 3155 3155 3156 3159 3159 3160 3163 3166 3168 3170 3170 3171 3171 3174 3175 3175 3175 3175 3175 3176 3174 3173 3172 3172 3173 3173 3173 3174 3176 3177 3180 3181
3156 3154 3153 3152 3154 3152 3153 3153 3154 3154 3156 3157 3156 3156 3156 3157 3159 3158 3160 3164 3165 3167 3169 3170 3170 3171 3172 3173 3174 3173 3174 3173 3174 3174 3172 3174 3166 3172 3173 3171 3171 3172 3174 3176 3179
3153 3152 3151 3149 3150 3150 3152 3152 3153 3155 3151 3157 3155 3155 3155 3158 3158 3157 3157 3161 3164 3165 3168 3168 3167 3169 3170 3172 3173 3173 3172 3173 3174 3173 3174 3173 3172 3169 3171 3172 3171 3170 3171 3173 3176
3148 3148 3147 3147 3147 3148 3150 3151 3154 3157 3149 3153 3153 3153 3155 3156 3157 3157 3158 3160 3162 3164 3165 3165 3165 3167 3168 3169 3170 3171 3172 3173 3173 3172 3167 3165 3171 3164 3168 3172 3171 3170 3169 3170 3173
3144 3144 3144 3144 3145 3145 3148 3151 3156 3150 3149 3152 3152 3152 3154 3156 3157 3157 3158 3160 3161 3162 3162 3164 3165 3166 3166 3169 3169 3171 3170 3165 3163 3161 3159 3166 3169 3164 3168 3169 3169 3169 3169 3168 3169
3138 3139 3140 3140 3141 3143 3146 3152 3151 3146 3147 3147 3150 3151 3153 3154 3155 3156 3157 3158 3159 3159 3159 3159 3162 3164 3165 3166 3167 3168 3167 3162 3162 3158 3156 3163 3165 3164 3166 3166 3166 3167 3167 3165 3166
3133 3134 3135 3137 3138 3140 3144 3147 3145 3145 3146 3147 3148 3149 3150 3152 3153 3154 3155 3155 3156 3157 3158 3157 3158 3161 3162 3164 3166 3165 3167 3165 3162 3160 3161 3158 3161 3164 3163 3163 3163 3164 3165 3164 3164
3129 3129 3130 3132 3134 3137 3141 3142 3143 3141 3142 3144 3145 3146 3146 3148 3151 3151 3152 3152 3154 3155 3156 3157 3157 3160 3160 3161 3160 3163 3163 3162 3159 3158 3155 3153 3159 3159 3161 3163 3162 3162 3162 3163 3162
3125 3126 3126 3128 3131 3133 3135 3138 3139 3139 3140 3143 3144 3144 3144 3145 3147 3148 3149 3151 3152 3152 3154 3156 3157 3158 3159 3159 3158 3160 3160 3160 3158 3158 3154 3150 3151 3155 3159 3160 3159 3160 3160 3160 3160
3122 3125 3123 3125 3129 3130 3133 3134 3134 3137 3138 3139 3139 3141 3143 3144 3144 3146 3147 3148 3149 3150 3152 3154 3153 3152 3154 3155 3155 3156 3156 3157 3155 3153 3154 3155 3154 3153 3155 3156 3156 3157 3157 3156 3156
3119 3120 3121 3122 3127 3127 3128 3128 3130 3134 3135 3137 3138 3138 3139 3142 3143 3143 3144 3145 3147 3149 3151 3152 3151 3150 3150 3154 3151 3153 3154 3155 3155 3154 3153 3152 3150 3150 3152 3153 3153 3153 3152 3152 3152
3118 3119 3119 3119 3119 3122 3125 3126 3128 3127 3130 3131 3133 3135 3137 3138 3140 3140 3141 3142 3144 3147 3147 3150 3148 3149 3146 3146 3149 3150 3152 3153 3153 3151 3147 3146 3148 3150 3151 3151 3149 3148 3147 3147 3147
3114 3115 3115 3119 3118 3118 3120 3122 3125 3127 3126 3128 3130 3132 3134 3135 3136 3137 3139 3140 3141 3143 3145 3148 3147 3147 3147 3148 3149 3149 3149 3150 3150 3149 3148 3147 3146 3147 3148 3147 3145 3143 3142 3142 3142
3110 3111 3112 3112 3113 3114 3117 3119 3121 3123 3123 3126 3127 3127 3128 3131 3133 3134 3135 3137 3138 3140 3142 3144 3144 3145 3145 3146 3147 3147 3146 3146 3146 3145 3145 3145 3143 3143 3141 3139 3138 3137 3137 3137 3136
3106 3106 3107 3108 3109 3111 3114 3114 3115 3114 3119 3119 3120 3122 3124 3125 3124 3126 3129 3132 3135 3136 3138 3141 3141 3143 3141 3141 3144 3144 3141 3140 3140 3140 3140 3140 3139 3137 3136 3134 3132 3131 3131 3131 3131
Wind_Speed
7 6 5 4 3 2 0 2 3 4 6 8 11 13 17 16 14 12 11 10 8 7 5 4 3 3 6 7 10 6 1 6 9 12 9 11 7 3 5 6 4 6 8 7 4
8 7 7 6 4 3 2 1 2 4 6 7 8 11 14 17 16 15 13 11 9 8 7 6 3 3 7 7 11 4 2 8 7 13 9 11 8 4 5 6 6 8 4 4 4
8 7 7 6 5 5 4 3 2 3 5 7 7 9 12 14 16 19 16 13 10 9 8 7 3 3 4 8 10 6 1 10 10 16 7 11 10 8 6 5 8 4 5 8 4
8 8 7 6 6 5 4 4 3 2 4 5 7 9 10 13 7 20 18 15 12 10 9 8 2 3 4 4 10 3 3 8 17 16 12 10 12 6 6 7 9 7 5 9 9
9 8 7 6 5 5 5 4 3 2 1 4 6 8 11 14 14 14 20 17 14 12 12 8 1 3 3 3 7 5 6 8 4 17 12 11 11 8 5 7 7 6 8 8 10
10 9 8 7 7 6 6 5 5 4 1 2 6 8 10 9 11 11 19 19 17 14 13 9 4 3 2 5 3 4 7 6 8 20 15 6 7 8 7 5 7 7 8 7 9
10 8 7 6 6 6 6 6 6 5 3 1 5 8 11 10 10 9 16 22 20 17 14 10 5 1 0 3 8 11 9 9 9 7 8 6 8 8 9 7 10 8 8 8 8
10 8 6 5 4 4 5 6 5 6 5 2 5 10 8 10 10 8 11 22 20 17 15 11 6 3 2 5 8 8 4 3 1 3 7 12 4 9 11 9 10 8 7 7 7
9 8 6 5 3 3 3 3 3 4 3 4 5 8 6 9 9 9 12 21 20 18 15 12 7 4 2 7 6 5 6 5 2 2 4 6 4 10 12 10 11 11 8 6 7
10 9 7 5 2 2 1 2 1 3 2 4 3 2 4 5 11 10 13 21 20 20 15 13 7 5 4 3 2 7 7 6 4 1 2 3 4 6 10 11 4 12 13 9 7
13 9 8 6 3 2 2 5 5 2 5 5 5 4 3 6 10 12 15 20 20 17 12 14 10 11 6 3 1 4 5 6 4 2 4 5 5 8 7 11 12 11 15 13 10
12 10 7 6 2 2 6 7 5 4 5 6 7 6 7 8 7 10 15 12 15 16 14 10 12 8 3 5 6 4 4 3 3 4 1 5 5 8 10 8 10 13 15 15 15
11 10 7 5 2 4 7 8 5 6 7 8 7 6 5 8 5 8 11 11 14 16 14 13 6 10 9 6 6 5 6 5 3 0 3 5 1 3 9 7 10 15 18 17 16
10 10 7 4 3 6 8 12 8 8 4 9 7 5 5 6 4 5 11 9 11 13 14 14 13 11 7 10 8 7 3 3 5 4 2 3 4 3 2 3 7 11 17 21 23
12 10 8 6 5 8 10 12 8 6 4 11 10 9 7 5 4 3 11 8 8 11 11 10 11 13 13 11 9 6 7 2 6 5 4 5 5 5 1 1 6 4 7 16 22
15 10 9 7 6 10 13 11 9 4 4 10 10 9 9 7 4 7 9 10 10 7 9 6 9 7 9 9 7 7 2 3 4 7 14 7 5 7 2 1 1 2 4 9 16
15 14 10 9 7 12 15 11 5 9 7 10 11 11 10 7 7 9 11 11 8 9 11 10 10 7 8 7 6 9 9 12 8 10 8 4 4 10 2 3 3 1 4 8 11
15 14 12 11 8 13 16 9 10 5 12 11 11 12 11 10 8 9 9 10 13 10 4 13 15 12 10 13 10 13 13 14 4 8 9 5 7 7 5 9 5 2 5 5 8
14 12 12 11 10 14 18 16 10 7 10 9 11 13 14 11 8 11 11 9 8 12 6 7 5 12 13 12 16 13 15 12 12 12 11 15 5 12 11 10 8 6 2 4 5
10 12 12 12 12 15 17 19 13 11 9 10 14 15 15 14 13 12 11 8 11 13 11 4 7 8 8 4 10 15 6 11 13 7 9 7 7 10 5 9 11 8 7 7 7
6 8 11 11 13 18 19 18 17 11 13 7 11 12 13 12 14 14 10 7 9 10 13 7 6 8 5 7 5 9 12 13 14 9 11 9 6 5 9 9 11 12 11 10 9
5 3 10 12 13 15 18 16 16 11 15 10 13 10 14 14 13 16 15 9 11 7 8 10 8 8 3 8 9 9 12 12 15 12 13 13 17 8 11 13 13 15 16 14 15
6 8 10 12 10 13 15 16 17 13 12 9 9 10 11 13 14 15 15 14 14 11 12 10 9 10 12 9 10 8 8 9 12 15 19 14 12 5 9 14 16 17 20 19 19
4 1 8 14 19 12 13 12 12 15 17 17 11 10 11 15 16 12 13 15 16 14 15 12 13 12 15 6 3 6 10 10 12 17 18 18 18 17 14 13 13 22 22 22 20
5 7 10 5 10 13 15 10 13 11 11 15 17 15 10 14 18 16 15 13 18 18 14 14 14 10 10 7 6 9 10 11 13 15 17 20 22 19 20 18 15 19 19 20 18
9 9 11 15 16 14 16 16 16 13 15 11 11 11 16 14 14 16 17 17 16 18 17 17 15 10 12 11 10 13 14 16 15 15 17 17 18 19 19 19 19 19 18 17 16
11 12 12 12 11 12 13 11 12 23 18 19 15 17 10 13 23 22 18 17 18 17 18 18 15 11 16 8 11 16 18 18 18 17 17 19 17 17 19 18 17 15 14 14 15
Wind_Direction
52 54 59 63 58 50 80 219 206 197 204 209 212 211 213 210 205 206 198 195 191 180 174 152 128 41 352 356 348 349 299 178 164 162 160 150 137 95 16 41 90 128 139 157 118
46 46 48 50 45 27 356 301 238 212 207 208 209 208 209 211 207 210 211 198 193 189 181 157 133 15 353 348 357 21 289 193 168 178 145 144 123 113 77 62 109 121 96 142 132
40 42 43 43 37 28 7 341 291 235 211 205 206 204 204 206 206 213 210 204 194 190 181 163 149 358 343 347 0 3 106 179 155 155 141 145 149 114 87 81 121 123 98 128 97
38 37 40 39 33 22 8 353 337 276 225 206 201 198 196 190 179 209 206 204 198 190 181 163 143 349 335 329 354 5 125 146 173 166 187 162 155 130 91 111 131 117 106 108 76
39 41 42 42 33 27 19 11 4 345 246 206 197 195 193 185 208 203 202 201 198 192 178 170 146 301 318 330 360 64 137 178 169 187 163 166 151 156 129 137 127 105 118 104 86
28 29 29 28 33 38 37 31 26 18 355 196 187 186 184 169 206 201 198 197 196 196 187 183 204 257 323 334 40 50 121 157 135 167 175 165 172 166 164 132 153 118 121 110 98
23 25 24 24 35 47 48 46 47 42 38 140 175 174 171 195 192 188 194 195 195 194 179 195 198 201 26 16 73 88 106 94 129 162 215 192 180 184 173 148 143 128 118 111 101
17 16 18 22 44 56 55 47 46 51 50 82 163 166 171 189 199 207 198 195 195 193 186 183 206 233 46 95 93 101 101 98 106 216 122 158 200 190 178 166 159 142 151 123 102
10 10 6 9 39 57 69 56 66 64 63 76 142 163 224 216 211 211 190 188 191 185 179 184 204 167 58 137 103 86 79 73 54 141 188 168 173 181 186 171 186 192 182 164 116
360 360 357 355 15 61 71 358 199 133 111 128 130 107 259 217 210 195 183 182 184 181 178 188 198 199 212 214 8 93 73 51 52 307 216 203 227 173 186 184 210 197 202 180 162
356 350 351 342 0 86 101 101 102 105 194 184 199 184 195 179 175 173 179 183 183 181 186 197 204 213 197 264 67 53 39 28 14 17 199 255 230 251 217 205 204 198 206 205 202
352 350 337 336 336 153 152 130 124 151 148 157 142 108 96 139 152 179 177 171 186 193 197 200 217 210 221 275 257 285 318 20 26 34 82 292 271 232 244 223 212 208 203 210 196
337 343 338 320 279 187 173 162 136 140 134 180 157 124 107 97 158 195 175 190 192 203 208 218 212 226 240 255 257 269 298 303 286 181 356 336 244 231 227 260 221 214 208 207 211
322 321 325 301 241 200 180 168 156 162 161 189 179 166 134 129 177 187 179 180 203 210 220 230 234 245 242 242 244 256 308 291 186 180 68 343 104 90 196 310 250 235 226 216 213
300 303 305 293 236 200 186 182 170 153 227 174 184 178 153 140 172 155 156 173 194 210 207 231 234 233 234 226 235 266 299 193 179 234 272 213 271 143 34 314 256 270 227 225 215
286 281 282 282 236 202 194 189 193 221 192 174 189 189 176 171 153 173 153 159 178 182 204 208 199 202 212 225 236 253 189 178 220 266 255 151 257 178 162 191 320 270 269 221 220
285 274 264 258 230 203 194 193 210 240 192 190 183 183 184 191 191 179 188 193 187 189 197 197 210 213 202 198 210 193 213 237 218 208 238 160 230 274 278 277 196 253 290 261 238
281 269 258 250 230 205 196 192 226 229 181 188 184 193 194 189 194 193 197 205 216 215 182 204 180 203 211 216 225 226 251 274 276 279 277 155 243 249 257 281 240 292 332 308 250
277 274 250 240 228 207 196 207 219 213 201 193 205 200 201 207 195 199 209 207 206 198 221 175 165 195 223 232 226 227 238 263 287 260 260 266 218 268 267 262 256 271 259 349 331
271 264 252 229 219 207 204 215 223 218 206 211 211 206 208 198 200 197 199 210 212 207 200 207 157 191 225 235 230 218 225 236 225 274 270 236 238 268 251 249 257 271 281 300 317
282 261 242 227 213 202 211 219 229 229 210 214 214 219 215 208 211 207 209 208 206 206 201 203 233 176 211 223 221 223 241 244 274 284 298 283 267 231 254 235 234 254 264 286 296
277 226 235 219 203 206 218 225 231 220 219 221 218 215 220 219 218 224 221 221 204 215 210 212 236 241 260 268 269 239 253 251 254 253 244 288 287 279 256 249 250 263 264 281 290
297 244 234 217 206 228 228 228 227 223 224 227 225 221 218 220 227 227 224 215 215 220 215 222 237 242 212 218 229 234 242 244 255 266 269 275 284 265 258 250 258 267 273 280 290
304 241 242 225 224 210 227 224 222 236 232 231 227 230 226 219 216 218 215 222 215 207 212 216 250 256 286 334 309 233 242 247 261 271 279 266 272 268 289 280 275 270 272 277 281
287 246 230 216 238 230 225 221 217 227 229 234 235 231 231 222 216 216 214 213 208 213 220 227 244 241 258 252 261 257 257 256 265 269 274 279 281 281 278 278 273 276 274 273 276
275 248 237 242 241 243 241 235 235 233 226 222 219 228 226 222 225 226 217 215 215 224 222 222 241 243 250 248 260 261 265 264 267 269 274 278 279 284 281 280 279 281 271 268 271
273 265 252 251 247 245 240 230 230 236 242 235 235 220 234 229 214 206 206 223 231 233 223 222 228 237 254 223 261 265 264 261 266 268 269 276 283 297 288 285 281 274 257 256 261